TimeEDT,TemperatureF,Dew PointF,Humidity,Sea Level PressureIn,VisibilityMPH,Wind Direction,Wind SpeedMPH,Gust SpeedMPH,PrecipitationIn,Events,Conditions,WindDirDegrees,DateUTC
12:15 AM,40.8,22.3,48,29.85,10.0,NNW,8.1,-,N/A,,Overcast,340,2013-03-21 04:15:00
12:35 AM,40.1,23.2,51,29.84,10.0,NNE,5.8,-,N/A,,Overcast,30,2013-03-21 04:35:00
12:55 AM,39.2,24.1,55,29.84,10.0,NNW,4.6,-,N/A,,Overcast,330,2013-03-21 04:55:00
1:15 AM,39.6,23.0,52,29.83,10.0,North,4.6,-,N/A,,Overcast,350,2013-03-21 05:15:00
1:35 AM,39.0,24.3,55,29.83,10.0,NW,9.2,-,N/A,,Overcast,320,2013-03-21 05:35:00
1:55 AM,37.8,25.7,62,29.83,10.0,NNW,6.9,-,N/A,,Mostly Cloudy,330,2013-03-21 05:55:00
2:15 AM,36.5,27.1,69,29.83,10.0,NW,8.1,-,N/A,,Scattered Clouds,320,2013-03-21 06:15:00
2:35 AM,36.3,27.3,70,29.82,10.0,NW,8.1,-,N/A,,Mostly Cloudy,310,2013-03-21 06:35:00
2:55 AM,35.6,28.4,75,29.81,10.0,NW,8.1,-,N/A,,Overcast,320,2013-03-21 06:55:00
3:35 AM,34.7,29.5,81,29.81,10.0,NNW,6.9,-,N/A,,Overcast,340,2013-03-21 07:35:00
3:55 AM,34.3,30.0,84,29.80,10.0,North,6.9,-,N/A,,Overcast,350,2013-03-21 07:55:00
4:15 AM,34.0,30.0,85,29.79,10.0,North,6.9,-,N/A,,Overcast,350,2013-03-21 08:15:00
4:35 AM,33.8,29.1,83,29.78,10.0,North,5.8,-,N/A,,Overcast,360,2013-03-21 08:35:00
5:15 AM,34.2,28.4,79,29.78,10.0,North,5.8,-,N/A,,Overcast,350,2013-03-21 09:15:00
5:35 AM,34.2,27.1,75,29.78,10.0,North,4.6,-,N/A,,Overcast,360,2013-03-21 09:35:00
5:55 AM,34.3,26.2,72,29.78,10.0,NNE,6.9,-,N/A,,Overcast,20,2013-03-21 09:55:00
6:15 AM,34.3,25.0,69,29.78,10.0,North,9.2,-,N/A,,Overcast,10,2013-03-21 10:15:00
6:35 AM,34.3,23.7,65,29.79,10.0,North,9.2,-,N/A,,Overcast,10,2013-03-21 10:35:00
6:55 AM,34.2,22.6,63,29.80,10.0,North,6.9,-,N/A,,Overcast,10,2013-03-21 10:55:00
7:15 AM,33.8,21.9,62,29.79,10.0,North,10.4,17.3,N/A,,Overcast,350,2013-03-21 11:15:00
7:35 AM,33.4,19.2,56,29.79,10.0,NNW,10.4,-,N/A,,Overcast,340,2013-03-21 11:35:00
8:15 AM,33.1,18.9,56,29.79,10.0,NNW,8.1,-,N/A,,Overcast,330,2013-03-21 12:15:00
8:35 AM,32.9,18.7,56,29.79,10.0,NNW,8.1,-,N/A,,Overcast,340,2013-03-21 12:35:00
8:55 AM,33.1,18.3,55,29.78,10.0,NNW,8.1,-,N/A,,Overcast,340,2013-03-21 12:55:00
9:15 AM,33.1,18.5,55,29.78,10.0,North,9.2,-,N/A,,Overcast,350,2013-03-21 13:15:00
9:35 AM,33.1,17.1,52,29.78,10.0,North,9.2,-,N/A,,Overcast,360,2013-03-21 13:35:00
9:55 AM,33.4,15.3,47,29.78,10.0,NNW,10.4,-,N/A,,Overcast,330,2013-03-21 13:55:00
10:35 AM,35.1,15.1,44,29.77,10.0,North,6.9,-,N/A,,Overcast,360,2013-03-21 14:35:00
10:55 AM,34.7,14.2,43,29.76,10.0,NNE,8.1,-,N/A,,Overcast,20,2013-03-21 14:55:00
11:15 AM,35.6,12.9,39,29.75,10.0,NNW,10.4,-,N/A,,Overcast,330,2013-03-21 15:15:00
11:35 AM,36.0,14.0,41,29.75,10.0,North,8.1,-,N/A,,Overcast,360,2013-03-21 15:35:00
12:15 PM,36.1,14.0,40,29.74,10.0,NW,9.2,-,N/A,,Mostly Cloudy,310,2013-03-21 16:15:00
12:35 PM,36.3,14.5,41,29.73,10.0,North,4.6,-,N/A,,Overcast,350,2013-03-21 16:35:00
12:55 PM,36.7,14.5,40,29.73,10.0,NNW,9.2,-,N/A,,Overcast,330,2013-03-21 16:55:00
1:15 PM,36.7,16.0,43,29.71,10.0,WNW,8.1,-,N/A,Snow,Light Snow,290,2013-03-21 17:15:00
1:35 PM,37.2,13.6,38,29.70,10.0,NNW,5.8,-,N/A,,Overcast,340,2013-03-21 17:35:00
1:55 PM,38.3,14.5,38,29.70,10.0,WNW,6.9,-,N/A,,Overcast,290,2013-03-21 17:55:00
2:15 PM,37.9,15.3,40,29.69,10.0,NW,9.2,-,N/A,,Overcast,320,2013-03-21 18:15:00
2:35 PM,37.8,15.3,40,29.68,10.0,North,3.5,-,N/A,,Overcast,360,2013-03-21 18:35:00
3:15 PM,39.6,16.5,39,29.67,10.0,WNW,6.9,16.1,N/A,,Overcast,300,2013-03-21 19:15:00
3:35 PM,40.3,14.7,35,29.66,10.0,NNW,10.4,-,N/A,,Mostly Cloudy,330,2013-03-21 19:35:00
3:55 PM,40.6,13.5,33,29.65,10.0,NNW,8.1,-,N/A,,Scattered Clouds,330,2013-03-21 19:55:00
4:15 PM,40.1,13.8,34,29.65,10.0,NNW,8.1,-,N/A,,Mostly Cloudy,340,2013-03-21 20:15:00
4:35 PM,40.6,13.6,33,29.64,10.0,NNW,4.6,-,N/A,,Mostly Cloudy,340,2013-03-21 20:35:00
4:55 PM,40.8,14.9,35,29.64,10.0,West,9.2,16.1,N/A,,Overcast,280,2013-03-21 20:55:00
5:15 PM,40.5,14.2,34,29.65,10.0,WNW,13.8,17.3,N/A,,Overcast,300,2013-03-21 21:15:00
5:35 PM,39.7,13.8,35,29.65,10.0,NNW,6.9,-,N/A,,Overcast,340,2013-03-21 21:35:00
5:55 PM,40.1,14.4,35,29.65,10.0,WNW,10.4,-,N/A,,Overcast,300,2013-03-21 21:55:00
6:15 PM,39.6,13.6,35,29.66,10.0,West,10.4,16.1,N/A,,Overcast,260,2013-03-21 22:15:00
6:35 PM,39.2,14.0,36,29.66,10.0,WNW,8.1,-,N/A,,Overcast,300,2013-03-21 22:35:00
6:55 PM,39.4,12.2,33,29.67,10.0,WNW,13.8,19.6,N/A,,Overcast,300,2013-03-21 22:55:00
7:15 PM,38.7,11.7,33,29.68,10.0,WNW,10.4,19.6,N/A,,Overcast,300,2013-03-21 23:15:00
7:35 PM,38.3,11.3,33,29.68,10.0,WNW,10.4,-,N/A,,Overcast,300,2013-03-21 23:35:00
7:55 PM,37.6,10.6,33,29.69,10.0,NW,13.8,19.6,N/A,,Overcast,310,2013-03-21 23:55:00
8:35 PM,36.0,12.2,38,29.70,10.0,WNW,13.8,21.9,N/A,,Scattered Clouds,300,2013-03-22 00:35:00
8:55 PM,35.2,13.3,41,29.71,10.0,WNW,10.4,-,N/A,,Clear,290,2013-03-22 00:55:00
9:35 PM,34.2,15.4,46,29.72,10.0,WNW,12.7,-,N/A,,Clear,290,2013-03-22 01:35:00
9:55 PM,33.8,14.9,46,29.73,10.0,WNW,12.7,18.4,N/A,,Clear,290,2013-03-22 01:55:00
10:15 PM,33.8,14.0,44,29.73,10.0,WNW,12.7,-,N/A,,Clear,300,2013-03-22 02:15:00
10:35 PM,33.3,13.8,45,29.74,10.0,WNW,15.0,19.6,N/A,,Clear,300,2013-03-22 02:35:00
10:55 PM,33.1,13.6,45,29.74,10.0,WNW,12.7,20.7,N/A,,Clear,300,2013-03-22 02:55:00
11:35 PM,32.5,13.3,45,29.75,10.0,WNW,11.5,20.7,N/A,,Clear,300,2013-03-22 03:35:00